Time,TemperatureF,DewpointF,PressureIn,WindDirection,WindDirectionDegrees,WindSpeedMPH,WindSpeedGustMPH,Humidity,HourlyPrecipIn,Conditions,Clouds,dailyrainin,SoftwareType,DateUTC
2013-07-28 00:01:00,61.3,53.3,29.87,WNW,290,17.0,17.0,75,0.00,,,0.00,Wunderground v.1.15,2013-07-28 04:01:00,
2013-07-28 00:02:00,61.2,52.8,29.87,WNW,298,16.0,17.0,74,0.00,,,0.00,Wunderground v.1.15,2013-07-28 04:02:00,
2013-07-28 00:03:00,61.2,52.1,29.87,WNW,288,13.0,17.0,72,0.00,,,0.00,Wunderground v.1.15,2013-07-28 04:03:00,
2013-07-28 00:04:00,61.2,51.7,29.87,WNW,293,17.0,17.0,71,0.00,,,0.00,Wunderground v.1.15,2013-07-28 04:04:00,
2013-07-28 00:07:00,61.2,52.5,29.87,WNW,296,16.0,17.0,73,0.00,,,0.00,Wunderground v.1.15,2013-07-28 04:07:00,
2013-07-28 00:12:00,61.3,52.6,29.87,WNW,302,17.0,17.0,73,0.00,,,0.00,Wunderground v.1.15,2013-07-28 04:12:00,
2013-07-28 00:17:00,61.2,52.8,29.87,WNW,286,16.0,17.0,74,0.00,,,0.00,Wunderground v.1.15,2013-07-28 04:17:00,
2013-07-28 00:23:00,61.2,52.8,29.87,WNW,289,17.0,17.0,74,0.00,,,0.00,Wunderground v.1.15,2013-07-28 04:23:00,
2013-07-28 00:28:00,61.2,53.2,29.87,WNW,288,14.0,18.0,75,0.00,,,0.00,Wunderground v.1.15,2013-07-28 04:28:00,
2013-07-28 00:33:00,61.3,53.3,29.87,WNW,298,12.0,16.0,75,0.00,,,0.00,Wunderground v.1.15,2013-07-28 04:33:00,
2013-07-28 00:39:00,61.3,52.6,29.87,WNW,295,13.0,18.0,73,0.00,,,0.00,Wunderground v.1.15,2013-07-28 04:39:00,
2013-07-28 00:44:00,61.3,52.9,29.86,NW,313,16.0,17.0,74,0.00,,,0.00,Wunderground v.1.15,2013-07-28 04:44:00,
2013-07-28 00:50:00,61.3,53.3,29.87,NW,313,14.0,16.0,75,0.00,,,0.00,Wunderground v.1.15,2013-07-28 04:50:00,
2013-07-28 00:56:00,61.2,52.1,29.86,WNW,294,16.0,17.0,72,0.00,,,0.00,Wunderground v.1.15,2013-07-28 04:56:00,
2013-07-28 01:01:00,61.3,52.9,29.86,WNW,297,17.0,17.0,74,0.00,,,0.00,Wunderground v.1.15,2013-07-28 05:01:00,
2013-07-28 01:06:00,61.3,52.6,29.86,WNW,295,14.0,17.0,73,0.00,,,0.00,Wunderground v.1.15,2013-07-28 05:06:00,
2013-07-28 01:12:00,61.3,52.9,29.86,WNW,297,16.0,16.0,74,0.00,,,0.00,Wunderground v.1.15,2013-07-28 05:12:00,
2013-07-28 01:17:00,61.2,53.6,29.86,NW,304,16.0,17.0,76,0.00,,,0.00,Wunderground v.1.15,2013-07-28 05:17:00,
2013-07-28 01:23:00,61.2,52.5,29.86,NW,310,15.0,15.0,73,0.00,,,0.00,Wunderground v.1.15,2013-07-28 05:23:00,
2013-07-28 01:29:00,61.2,52.8,29.86,NW,304,14.0,15.0,74,0.00,,,0.00,Wunderground v.1.15,2013-07-28 05:29:00,
2013-07-28 01:34:00,61.3,52.6,29.86,NW,311,15.0,16.0,73,0.00,,,0.00,Wunderground v.1.15,2013-07-28 05:34:00,
2013-07-28 01:40:00,61.3,52.9,29.85,NW,318,12.0,15.0,74,0.00,,,0.00,Wunderground v.1.15,2013-07-28 05:40:00,
2013-07-28 01:45:00,61.2,52.5,29.85,WNW,292,14.0,15.0,73,0.00,,,0.00,Wunderground v.1.15,2013-07-28 05:45:00,
2013-07-28 01:50:00,61.3,52.9,29.85,NW,315,14.0,14.0,74,0.00,,,0.00,Wunderground v.1.15,2013-07-28 05:50:00,
2013-07-28 01:55:00,61.2,52.8,29.85,NW,320,12.0,14.0,74,0.00,,,0.00,Wunderground v.1.15,2013-07-28 05:55:00,
2013-07-28 02:01:00,61.1,53.1,29.85,WNW,290,13.0,13.0,75,0.00,,,0.00,Wunderground v.1.15,2013-07-28 06:01:00,
2013-07-28 02:06:00,61.1,53.5,29.85,NW,319,14.0,18.0,76,0.00,,,0.00,Wunderground v.1.15,2013-07-28 06:06:00,
2013-07-28 02:11:00,60.9,52.6,29.85,NW,311,14.0,14.0,74,0.00,,,0.00,Wunderground v.1.15,2013-07-28 06:11:00,
2013-07-28 02:16:00,60.9,53.3,29.85,NW,315,14.0,17.0,76,0.00,,,0.00,Wunderground v.1.15,2013-07-28 06:16:00,
2013-07-28 02:21:00,60.9,53.3,29.85,NW,318,17.0,17.0,76,0.00,,,0.00,Wunderground v.1.15,2013-07-28 06:21:00,
2013-07-28 02:26:00,60.9,52.9,29.85,NW,317,15.0,23.0,75,0.00,,,0.00,Wunderground v.1.15,2013-07-28 06:26:00,
2013-07-28 02:32:00,60.8,52.8,29.85,NW,316,18.0,24.0,75,0.00,,,0.00,Wunderground v.1.15,2013-07-28 06:32:00,
2013-07-28 02:37:00,60.7,53.1,29.85,NW,304,18.0,24.0,76,0.00,,,0.00,Wunderground v.1.15,2013-07-28 06:37:00,
2013-07-28 02:42:00,60.6,53.3,29.85,NW,311,18.0,21.0,77,0.00,,,0.00,Wunderground v.1.15,2013-07-28 06:42:00,
2013-07-28 02:47:00,60.5,52.9,29.85,NW,311,19.0,25.0,76,0.00,,,0.00,Wunderground v.1.15,2013-07-28 06:47:00,
2013-07-28 02:52:00,60.4,53.5,29.84,NW,312,20.0,23.0,78,0.00,,,0.00,Wunderground v.1.15,2013-07-28 06:52:00,
2013-07-28 02:57:00,60.3,53.4,29.85,WNW,296,24.0,29.0,78,0.00,,,0.00,Wunderground v.1.15,2013-07-28 06:57:00,
2013-07-28 03:02:00,60.0,53.1,29.84,WNW,292,23.0,29.0,78,0.00,,,0.00,Wunderground v.1.15,2013-07-28 07:02:00,
2013-07-28 03:07:00,59.9,53.0,29.85,West,263,26.0,30.0,78,0.00,,,0.00,Wunderground v.1.15,2013-07-28 07:07:00,
2013-07-28 03:12:00,59.7,52.8,29.84,WNW,302,28.0,30.0,78,0.00,,,0.00,Wunderground v.1.15,2013-07-28 07:12:00,
2013-07-28 03:17:00,59.6,52.0,29.85,WNW,291,21.0,30.0,76,0.00,,,0.00,Wunderground v.1.15,2013-07-28 07:17:00,
2013-07-28 03:22:00,59.6,52.4,29.85,WNW,302,26.0,27.0,77,0.00,,,0.00,Wunderground v.1.15,2013-07-28 07:22:00,
2013-07-28 03:27:00,59.3,52.1,29.84,WNW,285,26.0,29.0,77,0.00,,,0.00,Wunderground v.1.15,2013-07-28 07:27:00,
2013-07-28 03:32:00,59.3,51.7,29.84,WNW,287,25.0,29.0,76,0.00,,,0.00,Wunderground v.1.15,2013-07-28 07:32:00,
2013-07-28 03:37:00,59.2,52.3,29.84,WNW,296,24.0,29.0,78,0.00,,,0.00,Wunderground v.1.15,2013-07-28 07:37:00,
2013-07-28 03:42:00,59.2,51.3,29.85,West,267,23.0,27.0,75,0.00,,,0.00,Wunderground v.1.15,2013-07-28 07:42:00,
2013-07-28 03:47:00,59.3,52.8,29.85,WNW,294,24.0,29.0,79,0.00,,,0.00,Wunderground v.1.15,2013-07-28 07:47:00,
2013-07-28 03:52:00,59.2,52.0,29.85,WNW,288,25.0,28.0,77,0.00,,,0.00,Wunderground v.1.15,2013-07-28 07:52:00,
2013-07-28 03:57:00,59.1,52.2,29.85,WNW,292,25.0,28.0,78,0.00,,,0.00,Wunderground v.1.15,2013-07-28 07:57:00,
2013-07-28 04:02:00,59.1,52.9,29.84,WNW,288,20.0,26.0,80,0.00,,,0.00,Wunderground v.1.15,2013-07-28 08:02:00,
2013-07-28 04:07:00,59.1,51.9,29.85,WNW,290,22.0,26.0,77,0.00,,,0.00,Wunderground v.1.15,2013-07-28 08:07:00,
2013-07-28 04:12:00,59.1,52.2,29.85,WNW,289,25.0,25.0,78,0.00,,,0.00,Wunderground v.1.15,2013-07-28 08:12:00,
2013-07-28 04:17:00,59.0,51.8,29.84,WNW,293,25.0,25.0,77,0.00,,,0.00,Wunderground v.1.15,2013-07-28 08:17:00,
2013-07-28 04:22:00,59.1,52.2,29.84,NW,309,24.0,24.0,78,0.00,,,0.00,Wunderground v.1.15,2013-07-28 08:22:00,
2013-07-28 04:27:00,59.1,52.9,29.85,WNW,296,22.0,24.0,80,0.00,,,0.00,Wunderground v.1.15,2013-07-28 08:27:00,
2013-07-28 04:32:00,59.0,51.8,29.84,WNW,297,22.0,24.0,77,0.00,,,0.00,Wunderground v.1.15,2013-07-28 08:32:00,
2013-07-28 04:37:00,59.0,51.8,29.84,WNW,295,23.0,25.0,77,0.00,,,0.00,Wunderground v.1.15,2013-07-28 08:37:00,
2013-07-28 04:42:00,59.1,52.2,29.84,WNW,284,25.0,26.0,78,0.00,,,0.00,Wunderground v.1.15,2013-07-28 08:42:00,
2013-07-28 04:47:00,59.1,51.9,29.84,WNW,283,23.0,26.0,77,0.00,,,0.00,Wunderground v.1.15,2013-07-28 08:47:00,
2013-07-28 04:52:00,59.0,51.8,29.85,WNW,294,21.0,28.0,77,0.00,,,0.00,Wunderground v.1.15,2013-07-28 08:52:00,
2013-07-28 04:57:00,59.1,52.2,29.84,WNW,297,27.0,28.0,78,0.00,,,0.00,Wunderground v.1.15,2013-07-28 08:57:00,
2013-07-28 05:02:00,59.1,51.9,29.84,WNW,287,21.0,26.0,77,0.00,,,0.00,Wunderground v.1.15,2013-07-28 09:02:00,
2013-07-28 05:07:00,59.1,51.9,29.84,WNW,294,23.0,26.0,77,0.00,,,0.00,Wunderground v.1.15,2013-07-28 09:07:00,
2013-07-28 05:12:00,59.1,52.2,29.84,WNW,293,21.0,26.0,78,0.00,,,0.00,Wunderground v.1.15,2013-07-28 09:12:00,
2013-07-28 05:17:00,59.1,52.2,29.84,WNW,296,23.0,26.0,78,0.00,,,0.00,Wunderground v.1.15,2013-07-28 09:17:00,
2013-07-28 05:22:00,59.1,52.2,29.84,NW,311,19.0,24.0,78,0.00,,,0.00,Wunderground v.1.15,2013-07-28 09:22:00,
2013-07-28 05:27:00,59.1,51.9,29.84,WNW,297,24.0,25.0,77,0.00,,,0.00,Wunderground v.1.15,2013-07-28 09:27:00,
2013-07-28 05:32:00,59.2,52.0,29.84,WNW,287,20.0,24.0,77,0.00,,,0.00,Wunderground v.1.15,2013-07-28 09:32:00,
2013-07-28 05:37:00,59.2,52.7,29.84,WNW,282,20.0,24.0,79,0.00,,,0.00,Wunderground v.1.15,2013-07-28 09:37:00,
2013-07-28 05:42:00,59.2,52.3,29.84,WNW,292,19.0,24.0,78,0.00,,,0.00,Wunderground v.1.15,2013-07-28 09:42:00,
2013-07-28 05:48:00,59.2,52.7,29.84,NNW,327,16.0,24.0,79,0.00,,,0.00,Wunderground v.1.15,2013-07-28 09:48:00,
2013-07-28 05:53:00,59.1,52.6,29.85,NW,320,16.0,23.0,79,0.00,,,0.00,Wunderground v.1.15,2013-07-28 09:53:00,
2013-07-28 05:58:00,59.1,52.9,29.85,NW,306,15.0,23.0,80,0.00,,,0.00,Wunderground v.1.15,2013-07-28 09:58:00,
2013-07-28 06:03:00,59.1,52.6,29.85,NW,313,19.0,22.0,79,0.00,,,0.00,Wunderground v.1.15,2013-07-28 10:03:00,
2013-07-28 06:08:00,59.0,52.5,29.85,WNW,300,15.0,22.0,79,0.00,,,0.00,Wunderground v.1.15,2013-07-28 10:08:00,
2013-07-28 06:13:00,59.0,52.1,29.85,WNW,300,19.0,22.0,78,0.00,,,0.00,Wunderground v.1.15,2013-07-28 10:13:00,
2013-07-28 06:18:00,59.0,52.1,29.85,NW,304,19.0,23.0,78,0.00,,,0.00,Wunderground v.1.15,2013-07-28 10:18:00,
2013-07-28 06:23:00,59.1,52.6,29.85,WNW,300,19.0,23.0,79,0.00,,,0.00,Wunderground v.1.15,2013-07-28 10:23:00,
2013-07-28 06:28:00,59.1,52.9,29.85,NW,310,17.0,27.0,80,0.00,,,0.00,Wunderground v.1.15,2013-07-28 10:28:00,
2013-07-28 06:33:00,59.0,52.5,29.85,WNW,282,20.0,23.0,79,0.00,,,0.00,Wunderground v.1.15,2013-07-28 10:33:00,
2013-07-28 06:38:00,59.0,52.5,29.85,NW,317,20.0,24.0,79,0.00,,,0.00,Wunderground v.1.15,2013-07-28 10:38:00,
2013-07-28 06:43:00,59.0,53.2,29.85,WNW,292,21.0,24.0,81,0.00,,,0.00,Wunderground v.1.15,2013-07-28 10:43:00,
2013-07-28 06:48:00,59.0,53.2,29.85,WNW,296,20.0,24.0,81,0.00,,,0.00,Wunderground v.1.15,2013-07-28 10:48:00,
2013-07-28 06:53:00,59.1,52.2,29.85,WNW,297,25.0,27.0,78,0.00,,,0.00,Wunderground v.1.15,2013-07-28 10:53:00,
2013-07-28 06:58:00,59.2,52.7,29.86,WNW,286,23.0,27.0,79,0.00,,,0.00,Wunderground v.1.15,2013-07-28 10:58:00,
2013-07-28 07:03:00,59.1,52.9,29.86,WNW,297,20.0,25.0,80,0.00,,,0.00,Wunderground v.1.15,2013-07-28 11:03:00,
2013-07-28 07:08:00,59.1,51.9,29.86,WNW,298,20.0,25.0,77,0.00,,,0.00,Wunderground v.1.15,2013-07-28 11:08:00,
2013-07-28 07:13:00,59.1,52.9,29.86,WNW,298,24.0,25.0,80,0.00,,,0.00,Wunderground v.1.15,2013-07-28 11:13:00,
2013-07-28 07:18:00,59.2,53.0,29.86,WNW,296,23.0,25.0,80,0.00,,,0.00,Wunderground v.1.15,2013-07-28 11:18:00,
2013-07-28 07:23:00,59.1,52.9,29.86,NW,309,20.0,26.0,80,0.00,,,0.00,Wunderground v.1.15,2013-07-28 11:23:00,
2013-07-28 07:28:00,59.1,52.2,29.86,WNW,303,22.0,28.0,78,0.00,,,0.00,Wunderground v.1.15,2013-07-28 11:28:00,
2013-07-28 07:33:00,59.2,52.0,29.86,WNW,298,26.0,29.0,77,0.00,,,0.00,Wunderground v.1.15,2013-07-28 11:33:00,
2013-07-28 07:38:00,59.1,52.2,29.86,WNW,293,24.0,29.0,78,0.00,,,0.00,Wunderground v.1.15,2013-07-28 11:38:00,
2013-07-28 07:43:00,59.2,52.7,29.86,WNW,294,24.0,26.0,79,0.00,,,0.00,Wunderground v.1.15,2013-07-28 11:43:00,
2013-07-28 07:48:00,59.1,52.6,29.86,WNW,295,20.0,26.0,79,0.00,,,0.00,Wunderground v.1.15,2013-07-28 11:48:00,
2013-07-28 07:53:00,59.0,53.2,29.86,NW,317,23.0,29.0,81,0.00,,,0.00,Wunderground v.1.15,2013-07-28 11:53:00,
2013-07-28 07:58:00,58.7,51.9,29.87,WNW,289,20.0,29.0,78,0.00,,,0.00,Wunderground v.1.15,2013-07-28 11:58:00,
2013-07-28 08:03:00,58.9,52.1,29.86,WNW,288,23.0,29.0,78,0.00,,,0.00,Wunderground v.1.15,2013-07-28 12:03:00,
2013-07-28 08:08:00,58.6,54.1,29.86,NW,325,20.0,29.0,85,0.00,,,0.00,Wunderground v.1.15,2013-07-28 12:08:00,
2013-07-28 08:13:00,57.9,53.4,29.87,NW,315,17.0,27.0,85,0.00,,,0.00,Wunderground v.1.15,2013-07-28 12:13:00,
2013-07-28 08:18:00,57.7,53.5,29.87,NNW,331,19.0,27.0,86,0.00,,,0.00,Wunderground v.1.15,2013-07-28 12:18:00,
2013-07-28 08:23:00,57.5,54.0,29.87,WNW,299,21.0,24.0,88,0.00,,,0.00,Wunderground v.1.15,2013-07-28 12:23:00,
2013-07-28 08:28:00,57.8,53.3,29.87,WNW,288,22.0,24.0,85,0.00,,,0.00,Wunderground v.1.15,2013-07-28 12:28:00,
2013-07-28 08:33:00,58.2,54.3,29.87,WNW,298,18.0,26.0,87,0.00,,,0.00,Wunderground v.1.15,2013-07-28 12:33:00,
2013-07-28 08:38:00,58.0,53.8,29.87,NW,315,21.0,26.0,86,0.00,,,0.00,Wunderground v.1.15,2013-07-28 12:38:00,
2013-07-28 08:44:00,58.6,53.1,29.87,WNW,296,26.0,27.0,82,0.00,,,0.00,Wunderground v.1.15,2013-07-28 12:44:00,
2013-07-28 08:49:00,58.9,53.7,29.87,NW,308,21.0,29.0,83,0.00,,,0.00,Wunderground v.1.15,2013-07-28 12:49:00,
2013-07-28 08:54:00,59.1,52.6,29.87,WNW,290,27.0,30.0,79,0.00,,,0.00,Wunderground v.1.15,2013-07-28 12:54:00,
2013-07-28 08:59:00,58.6,53.1,29.88,NW,304,17.0,33.0,82,0.00,,,0.00,Wunderground v.1.15,2013-07-28 12:59:00,
2013-07-28 09:04:00,57.4,53.9,29.88,West,277,20.0,26.0,88,0.00,,,0.00,Wunderground v.1.15,2013-07-28 13:04:00,
2013-07-28 09:09:00,57.2,54.0,29.88,WNW,297,24.0,26.0,89,0.00,,,0.00,Wunderground v.1.15,2013-07-28 13:09:00,
2013-07-28 09:13:00,57.9,53.1,29.88,WNW,293,23.0,26.0,84,0.00,,,0.00,Wunderground v.1.15,2013-07-28 13:13:00,
2013-07-28 09:18:00,58.9,53.7,29.88,WNW,294,20.0,27.0,83,0.00,,,0.00,Wunderground v.1.15,2013-07-28 13:18:00,
2013-07-28 09:24:00,59.2,53.0,29.87,WNW,302,20.0,28.0,80,0.00,,,0.00,Wunderground v.1.15,2013-07-28 13:24:00,
2013-07-28 09:29:00,59.2,53.0,29.88,NW,307,19.0,28.0,80,0.00,,,0.00,Wunderground v.1.15,2013-07-28 13:29:00,
2013-07-28 09:34:00,59.3,52.8,29.88,WNW,290,22.0,26.0,79,0.00,,,0.00,Wunderground v.1.15,2013-07-28 13:34:00,
2013-07-28 09:39:00,59.3,53.1,29.88,WNW,302,15.0,28.0,80,0.00,,,0.00,Wunderground v.1.15,2013-07-28 13:39:00,
2013-07-28 09:44:00,59.2,53.7,29.89,NW,308,19.0,27.0,82,0.00,,,0.00,Wunderground v.1.15,2013-07-28 13:44:00,
2013-07-28 09:49:00,59.3,53.5,29.89,WNW,285,21.0,27.0,81,0.00,,,0.00,Wunderground v.1.15,2013-07-28 13:49:00,
2013-07-28 09:54:00,59.3,53.8,29.89,WNW,292,26.0,28.0,82,0.00,,,0.00,Wunderground v.1.15,2013-07-28 13:54:00,
2013-07-28 09:59:00,59.3,52.8,29.88,WNW,298,18.0,28.0,79,0.00,,,0.00,Wunderground v.1.15,2013-07-28 13:59:00,
2013-07-28 10:04:00,59.4,52.9,29.89,WNW,294,21.0,25.0,79,0.00,,,0.00,Wunderground v.1.15,2013-07-28 14:04:00,
2013-07-28 10:09:00,59.5,53.3,29.89,WNW,301,16.0,26.0,80,0.00,,,0.00,Wunderground v.1.15,2013-07-28 14:09:00,
2013-07-28 10:14:00,59.3,53.1,29.88,WNW,294,21.0,23.0,80,0.00,,,0.00,Wunderground v.1.15,2013-07-28 14:14:00,
2013-07-28 10:19:00,59.5,53.3,29.89,NW,321,20.0,26.0,80,0.00,,,0.00,Wunderground v.1.15,2013-07-28 14:19:00,
2013-07-28 10:24:00,59.5,53.7,29.89,WNW,296,17.0,23.0,81,0.00,,,0.00,Wunderground v.1.15,2013-07-28 14:24:00,
2013-07-28 10:29:00,59.6,53.1,29.89,West,279,22.0,25.0,79,0.00,,,0.00,Wunderground v.1.15,2013-07-28 14:29:00,
2013-07-28 10:34:00,59.5,53.3,29.89,WNW,292,18.0,25.0,80,0.00,,,0.00,Wunderground v.1.15,2013-07-28 14:34:00,
2013-07-28 10:39:00,59.6,53.8,29.88,NW,314,18.0,25.0,81,0.00,,,0.00,Wunderground v.1.15,2013-07-28 14:39:00,
2013-07-28 10:44:00,59.7,52.5,29.88,NW,312,17.0,24.0,77,0.00,,,0.00,Wunderground v.1.15,2013-07-28 14:44:00,
2013-07-28 10:49:00,59.6,53.1,29.89,WNW,291,21.0,27.0,79,0.00,,,0.00,Wunderground v.1.15,2013-07-28 14:49:00,
2013-07-28 10:54:00,59.8,52.9,29.89,WNW,303,18.0,22.0,78,0.00,,,0.00,Wunderground v.1.15,2013-07-28 14:54:00,
2013-07-28 10:59:00,60.1,53.2,29.89,NW,313,17.0,22.0,78,0.00,,,0.00,Wunderground v.1.15,2013-07-28 14:59:00,
2013-07-28 11:04:00,60.2,54.0,29.90,WNW,300,18.0,20.0,80,0.00,,,0.00,Wunderground v.1.15,2013-07-28 15:04:00,
2013-07-28 11:09:00,60.1,52.9,29.90,NW,319,17.0,22.0,77,0.00,,,0.00,Wunderground v.1.15,2013-07-28 15:09:00,
2013-07-28 11:14:00,60.2,53.3,29.90,WNW,302,20.0,23.0,78,0.00,,,0.00,Wunderground v.1.15,2013-07-28 15:14:00,
2013-07-28 11:19:00,60.0,53.1,29.90,WNW,300,22.0,23.0,78,0.00,,,0.00,Wunderground v.1.15,2013-07-28 15:19:00,
2013-07-28 11:24:00,59.9,53.4,29.90,NW,306,18.0,22.0,79,0.00,,,0.00,Wunderground v.1.15,2013-07-28 15:24:00,
2013-07-28 11:29:00,59.8,53.3,29.90,WNW,292,18.0,23.0,79,0.00,,,0.00,Wunderground v.1.15,2013-07-28 15:29:00,
2013-07-28 11:34:00,59.8,53.3,29.90,WNW,302,17.0,22.0,79,0.00,,,0.00,Wunderground v.1.15,2013-07-28 15:34:00,
2013-07-28 11:39:00,59.9,54.1,29.90,WNW,296,20.0,23.0,81,0.00,,,0.00,Wunderground v.1.15,2013-07-28 15:39:00,
2013-07-28 11:44:00,59.8,52.9,29.90,WNW,290,20.0,24.0,78,0.00,,,0.00,Wunderground v.1.15,2013-07-28 15:44:00,
2013-07-28 11:49:00,59.7,53.5,29.90,WNW,292,18.0,25.0,80,0.00,,,0.00,Wunderground v.1.15,2013-07-28 15:49:00,
2013-07-28 11:54:00,58.9,54.1,29.90,NW,308,12.0,20.0,84,0.00,,,0.00,Wunderground v.1.15,2013-07-28 15:54:00,
2013-07-28 11:59:00,59.1,51.9,29.90,WNW,291,22.0,23.0,77,0.00,,,0.00,Wunderground v.1.15,2013-07-28 15:59:00,
2013-07-28 12:04:00,59.8,52.6,29.91,WNW,296,21.0,24.0,77,0.00,,,0.00,Wunderground v.1.15,2013-07-28 16:04:00,
2013-07-28 12:09:00,60.2,53.7,29.90,WNW,300,21.0,24.0,79,0.00,,,0.00,Wunderground v.1.15,2013-07-28 16:09:00,
2013-07-28 12:14:00,60.6,53.7,29.91,NW,307,21.0,23.0,78,0.00,,,0.00,Wunderground v.1.15,2013-07-28 16:14:00,
2013-07-28 12:19:00,60.7,52.0,29.91,WNW,286,20.0,24.0,73,0.00,,,0.00,Wunderground v.1.15,2013-07-28 16:19:00,
2013-07-28 12:24:00,60.6,54.0,29.91,WNW,290,20.0,22.0,79,0.00,,,0.00,Wunderground v.1.15,2013-07-28 16:24:00,
2013-07-28 12:29:00,60.7,53.1,29.91,WNW,293,19.0,23.0,76,0.00,,,0.00,Wunderground v.1.15,2013-07-28 16:29:00,
2013-07-28 12:34:00,60.5,53.3,29.91,WNW,283,18.0,24.0,77,0.00,,,0.00,Wunderground v.1.15,2013-07-28 16:34:00,
2013-07-28 12:40:00,60.9,54.0,29.91,WNW,300,21.0,25.0,78,0.00,,,0.00,Wunderground v.1.15,2013-07-28 16:40:00,
2013-07-28 12:45:00,60.6,54.7,29.92,WNW,292,18.0,23.0,81,0.00,,,0.00,Wunderground v.1.15,2013-07-28 16:45:00,
2013-07-28 12:50:00,59.8,54.0,29.92,WNW,302,18.0,23.0,81,0.00,,,0.00,Wunderground v.1.15,2013-07-28 16:50:00,
2013-07-28 12:55:00,59.6,53.8,29.92,NW,306,17.0,23.0,81,0.00,,,0.00,Wunderground v.1.15,2013-07-28 16:55:00,
2013-07-28 13:00:00,60.0,54.2,29.92,West,269,15.0,23.0,81,0.00,,,0.00,Wunderground v.1.15,2013-07-28 17:00:00,
2013-07-28 13:05:00,60.0,53.1,29.92,NW,309,12.0,18.0,78,0.00,,,0.00,Wunderground v.1.15,2013-07-28 17:05:00,
2013-07-28 13:10:00,60.2,53.7,29.92,WNW,286,16.0,20.0,79,0.00,,,0.00,Wunderground v.1.15,2013-07-28 17:10:00,
2013-07-28 13:15:00,60.4,54.2,29.92,WNW,292,20.0,21.0,80,0.00,,,0.00,Wunderground v.1.15,2013-07-28 17:15:00,
2013-07-28 13:20:00,61.0,53.4,29.92,WNW,300,19.0,21.0,76,0.00,,,0.00,Wunderground v.1.15,2013-07-28 17:20:00,
2013-07-28 13:25:00,61.0,53.0,29.92,WNW,286,17.0,22.0,75,0.00,,,0.00,Wunderground v.1.15,2013-07-28 17:25:00,
2013-07-28 13:30:00,61.1,53.1,29.92,WNW,287,16.0,18.0,75,0.00,,,0.00,Wunderground v.1.15,2013-07-28 17:30:00,
2013-07-28 13:35:00,61.1,53.1,29.92,West,279,17.0,21.0,75,0.00,,,0.00,Wunderground v.1.15,2013-07-28 17:35:00,
2013-07-28 13:40:00,61.3,52.6,29.92,WNW,296,19.0,19.0,73,0.00,,,0.00,Wunderground v.1.15,2013-07-28 17:40:00,
2013-07-28 13:45:00,61.3,53.7,29.93,WNW,295,22.0,22.0,76,0.00,,,0.00,Wunderground v.1.15,2013-07-28 17:45:00,
2013-07-28 13:50:00,61.0,51.9,29.93,WNW,287,19.0,20.0,72,0.00,,,0.00,Wunderground v.1.15,2013-07-28 17:50:00,
2013-07-28 13:55:00,61.5,54.2,29.93,WNW,283,18.0,21.0,77,0.00,,,0.00,Wunderground v.1.15,2013-07-28 17:55:00,
2013-07-28 14:00:00,61.5,53.5,29.93,WNW,290,17.0,18.0,75,0.00,,,0.00,Wunderground v.1.15,2013-07-28 18:00:00,
2013-07-28 14:05:00,61.3,53.7,29.93,WNW,294,17.0,20.0,76,0.00,,,0.00,Wunderground v.1.15,2013-07-28 18:05:00,
2013-07-28 14:10:00,61.7,53.3,29.93,WNW,294,15.0,16.0,74,0.00,,,0.00,Wunderground v.1.15,2013-07-28 18:10:00,
2013-07-28 14:15:00,61.6,53.6,29.93,WNW,286,17.0,19.0,75,0.00,,,0.00,Wunderground v.1.15,2013-07-28 18:15:00,
2013-07-28 14:20:00,61.9,53.5,29.93,WNW,299,15.0,16.0,74,0.00,,,0.00,Wunderground v.1.15,2013-07-28 18:20:00,
2013-07-28 14:25:00,61.9,53.9,29.93,WNW,290,16.0,18.0,75,0.00,,,0.00,Wunderground v.1.15,2013-07-28 18:25:00,
2013-07-28 14:30:00,62.1,53.3,29.93,WNW,290,16.0,18.0,73,0.00,,,0.00,Wunderground v.1.15,2013-07-28 18:30:00,
2013-07-28 14:35:00,62.2,53.8,29.93,WNW,288,15.0,22.0,74,0.00,,,0.00,Wunderground v.1.15,2013-07-28 18:35:00,
2013-07-28 14:40:00,62.0,54.3,29.93,WNW,298,16.0,17.0,76,0.00,,,0.00,Wunderground v.1.15,2013-07-28 18:40:00,
2013-07-28 14:45:00,61.6,54.7,29.93,WNW,290,18.0,18.0,78,0.00,,,0.00,Wunderground v.1.15,2013-07-28 18:45:00,
2013-07-28 14:50:00,61.4,53.8,29.93,WNW,282,16.0,19.0,76,0.00,,,0.00,Wunderground v.1.15,2013-07-28 18:50:00,
2013-07-28 14:55:00,61.4,55.2,29.93,WNW,296,20.0,21.0,80,0.00,,,0.00,Wunderground v.1.15,2013-07-28 18:55:00,
2013-07-28 15:00:00,61.5,54.6,29.93,NW,305,17.0,19.0,78,0.00,,,0.00,Wunderground v.1.15,2013-07-28 19:00:00,
2013-07-28 15:06:00,61.6,54.3,29.93,WNW,299,19.0,20.0,77,0.00,,,0.00,Wunderground v.1.15,2013-07-28 19:06:00,
2013-07-28 15:11:00,61.8,52.7,29.93,West,259,17.0,19.0,72,0.00,,,0.00,Wunderground v.1.15,2013-07-28 19:11:00,
2013-07-28 15:16:00,62.2,54.5,29.93,NW,306,19.0,19.0,76,0.00,,,0.00,Wunderground v.1.15,2013-07-28 19:16:00,
2013-07-28 15:21:00,62.0,54.7,29.94,WNW,302,13.0,18.0,77,0.00,,,0.00,Wunderground v.1.15,2013-07-28 19:21:00,
2013-07-28 15:26:00,61.7,54.4,29.94,WNW,290,16.0,18.0,77,0.00,,,0.00,Wunderground v.1.15,2013-07-28 19:26:00,
2013-07-28 15:31:00,61.3,54.4,29.93,WNW,288,16.0,17.0,78,0.00,,,0.00,Wunderground v.1.15,2013-07-28 19:31:00,
2013-07-28 15:36:00,61.3,55.1,29.94,WNW,294,16.0,18.0,80,0.00,,,0.00,Wunderground v.1.15,2013-07-28 19:36:00,
2013-07-28 15:41:00,61.3,55.1,29.94,WNW,299,14.0,18.0,80,0.00,,,0.00,Wunderground v.1.15,2013-07-28 19:41:00,
2013-07-28 15:46:00,61.7,55.5,29.94,West,275,12.0,18.0,80,0.00,,,0.00,Wunderground v.1.15,2013-07-28 19:46:00,
2013-07-28 15:51:00,62.1,54.8,29.95,WNW,297,17.0,17.0,77,0.00,,,0.00,Wunderground v.1.15,2013-07-28 19:51:00,
2013-07-28 15:56:00,62.2,55.3,29.95,WNW,298,15.0,17.0,78,0.00,,,0.00,Wunderground v.1.15,2013-07-28 19:56:00,
2013-07-28 16:01:00,62.1,55.2,29.95,WNW,295,13.0,16.0,78,0.00,,,0.00,Wunderground v.1.15,2013-07-28 20:01:00,
2013-07-28 16:06:00,62.2,55.6,29.95,WNW,294,18.0,18.0,79,0.00,,,0.00,Wunderground v.1.15,2013-07-28 20:06:00,
2013-07-28 16:11:00,62.2,55.6,29.95,WNW,297,16.0,17.0,79,0.00,,,0.00,Wunderground v.1.15,2013-07-28 20:11:00,
2013-07-28 16:16:00,62.2,54.9,29.95,WNW,288,12.0,18.0,77,0.00,,,0.00,Wunderground v.1.15,2013-07-28 20:16:00,
2013-07-28 16:21:00,62.3,55.4,29.95,NW,304,17.0,18.0,78,0.00,,,0.00,Wunderground v.1.15,2013-07-28 20:21:00,
2013-07-28 16:26:00,62.5,55.2,29.96,WNW,302,12.0,18.0,77,0.00,,,0.00,Wunderground v.1.15,2013-07-28 20:26:00,
2013-07-28 16:31:00,62.4,55.4,29.96,WNW,294,14.0,19.0,78,0.00,,,0.00,Wunderground v.1.15,2013-07-28 20:31:00,
2013-07-28 16:37:00,62.5,54.8,29.96,NW,309,15.0,19.0,76,0.00,,,0.00,Wunderground v.1.15,2013-07-28 20:37:00,
2013-07-28 16:42:00,62.5,55.5,29.96,NW,304,17.0,17.0,78,0.00,,,0.00,Wunderground v.1.15,2013-07-28 20:42:00,
2013-07-28 16:47:00,62.6,54.9,29.96,WNW,284,11.0,17.0,76,0.00,,,0.00,Wunderground v.1.15,2013-07-28 20:47:00,
2013-07-28 16:52:00,62.6,55.3,29.96,WNW,301,12.0,14.0,77,0.00,,,0.00,Wunderground v.1.15,2013-07-28 20:52:00,
2013-07-28 16:57:00,62.9,55.9,29.96,NW,304,13.0,14.0,78,0.00,,,0.00,Wunderground v.1.15,2013-07-28 20:57:00,
2013-07-28 17:02:00,62.9,54.9,29.96,WNW,294,11.0,13.0,75,0.00,,,0.00,Wunderground v.1.15,2013-07-28 21:02:00,
2013-07-28 17:07:00,62.9,55.2,29.96,WNW,300,10.0,14.0,76,0.00,,,0.00,Wunderground v.1.15,2013-07-28 21:07:00,
2013-07-28 17:12:00,63.4,55.7,29.96,WNW,285,12.0,15.0,76,0.00,,,0.00,Wunderground v.1.15,2013-07-28 21:12:00,
2013-07-28 17:17:00,63.4,55.3,29.96,WNW,296,13.0,15.0,75,0.00,,,0.00,Wunderground v.1.15,2013-07-28 21:17:00,
2013-07-28 17:22:00,62.9,55.2,29.97,WNW,292,12.0,14.0,76,0.00,,,0.00,Wunderground v.1.15,2013-07-28 21:22:00,
2013-07-28 17:27:00,63.2,55.9,29.97,WNW,294,13.0,14.0,77,0.00,,,0.00,Wunderground v.1.15,2013-07-28 21:27:00,
2013-07-28 17:32:00,63.7,54.5,29.97,NW,310,13.0,14.0,72,0.00,,,0.00,Wunderground v.1.15,2013-07-28 21:32:00,
2013-07-28 17:37:00,62.9,54.5,29.97,WNW,300,13.0,17.0,74,0.00,,,0.00,Wunderground v.1.15,2013-07-28 21:37:00,
2013-07-28 17:42:00,62.7,55.0,29.97,WNW,300,12.0,14.0,76,0.00,,,0.00,Wunderground v.1.15,2013-07-28 21:42:00,
2013-07-28 17:47:00,63.1,55.4,29.97,WNW,297,13.0,15.0,76,0.00,,,0.00,Wunderground v.1.15,2013-07-28 21:47:00,
2013-07-28 17:52:00,63.3,55.6,29.97,WNW,288,14.0,15.0,76,0.00,,,0.00,Wunderground v.1.15,2013-07-28 21:52:00,
2013-07-28 17:57:00,64.1,54.5,29.97,WNW,288,12.0,15.0,71,0.00,,,0.00,Wunderground v.1.15,2013-07-28 21:57:00,
2013-07-28 18:02:00,63.3,54.5,29.97,WNW,289,10.0,12.0,73,0.00,,,0.00,Wunderground v.1.15,2013-07-28 22:02:00,
2013-07-28 18:07:00,63.1,55.0,29.97,WNW,291,11.0,13.0,75,0.00,,,0.00,Wunderground v.1.15,2013-07-28 22:07:00,
2013-07-28 18:12:00,64.3,56.6,29.97,WNW,297,9.0,12.0,76,0.00,,,0.00,Wunderground v.1.15,2013-07-28 22:12:00,
2013-07-28 18:17:00,65.7,56.4,29.97,WNW,301,9.0,12.0,72,0.00,,,0.00,Wunderground v.1.15,2013-07-28 22:17:00,
2013-07-28 18:22:00,65.9,55.8,29.97,WNW,287,6.0,10.0,70,0.00,,,0.00,Wunderground v.1.15,2013-07-28 22:22:00,
2013-07-28 18:27:00,64.4,55.9,29.97,WNW,297,6.0,10.0,74,0.00,,,0.00,Wunderground v.1.15,2013-07-28 22:27:00,
2013-07-28 18:32:00,63.6,55.5,29.97,WNW,300,6.0,9.0,75,0.00,,,0.00,Wunderground v.1.15,2013-07-28 22:32:00,
2013-07-28 18:37:00,64.4,55.9,29.97,WNW,299,10.0,12.0,74,0.00,,,0.00,Wunderground v.1.15,2013-07-28 22:37:00,
2013-07-28 18:42:00,65.2,55.9,29.97,WNW,293,11.0,11.0,72,0.00,,,0.00,Wunderground v.1.15,2013-07-28 22:42:00,
2013-07-28 18:47:00,65.6,55.9,29.97,WNW,284,9.0,12.0,71,0.00,,,0.00,Wunderground v.1.15,2013-07-28 22:47:00,
2013-07-28 18:52:00,65.6,55.5,29.97,WNW,289,7.0,9.0,70,0.00,,,0.00,Wunderground v.1.15,2013-07-28 22:52:00,
2013-07-28 18:57:00,65.4,55.0,29.97,WNW,294,7.0,9.0,69,0.00,,,0.00,Wunderground v.1.15,2013-07-28 22:57:00,
2013-07-28 19:02:00,65.4,55.7,29.97,WNW,290,7.0,8.0,71,0.00,,,0.00,Wunderground v.1.15,2013-07-28 23:02:00,
2013-07-28 19:07:00,65.2,55.6,29.97,WNW,301,6.0,9.0,71,0.00,,,0.00,Wunderground v.1.15,2013-07-28 23:07:00,
2013-07-28 19:12:00,65.5,56.2,29.97,WNW,299,6.0,6.0,72,0.00,,,0.00,Wunderground v.1.15,2013-07-28 23:12:00,
2013-07-28 19:13:00,65.5,56.2,29.97,WNW,299,5.0,6.0,72,0.00,,,0.00,Wunderground v.1.15,2013-07-28 23:13:00,
2013-07-28 19:18:00,65.6,55.9,29.97,WNW,292,4.0,9.0,71,0.00,,,0.00,Wunderground v.1.15,2013-07-28 23:18:00,
2013-07-28 19:23:00,66.0,55.1,29.97,WNW,292,5.0,6.0,68,0.00,,,0.00,Wunderground v.1.15,2013-07-28 23:23:00,
2013-07-28 19:28:00,66.3,55.8,29.98,WNW,298,5.0,6.0,69,0.00,,,0.00,Wunderground v.1.15,2013-07-28 23:28:00,
2013-07-28 19:33:00,66.3,56.2,29.98,WNW,301,5.0,5.0,70,0.00,,,0.00,Wunderground v.1.15,2013-07-28 23:33:00,
2013-07-28 19:38:00,66.3,55.8,29.98,WNW,301,4.0,5.0,69,0.00,,,0.00,Wunderground v.1.15,2013-07-28 23:38:00,
2013-07-28 19:43:00,65.9,56.2,29.98,WNW,300,4.0,7.0,71,0.00,,,0.00,Wunderground v.1.15,2013-07-28 23:43:00,
2013-07-28 19:48:00,65.6,55.2,29.98,WNW,284,4.0,7.0,69,0.00,,,0.00,Wunderground v.1.15,2013-07-28 23:48:00,
2013-07-28 19:53:00,65.0,55.0,29.98,WNW,295,2.0,5.0,70,0.00,,,0.00,Wunderground v.1.15,2013-07-28 23:53:00,
2013-07-28 19:58:00,63.9,54.3,29.98,WNW,295,3.0,5.0,71,0.00,,,0.00,Wunderground v.1.15,2013-07-28 23:58:00,
2013-07-28 20:03:00,63.3,54.5,29.98,WNW,295,2.0,5.0,73,0.00,,,0.00,Wunderground v.1.15,2013-07-29 00:03:00,
2013-07-28 20:08:00,64.3,54.7,29.98,WNW,296,4.0,5.0,71,0.00,,,0.00,Wunderground v.1.15,2013-07-29 00:08:00,
2013-07-28 20:13:00,63.8,55.0,29.98,WNW,296,0.0,4.0,73,0.00,,,0.00,Wunderground v.1.15,2013-07-29 00:13:00,
2013-07-28 20:18:00,63.1,55.0,29.98,WNW,296,0.0,4.0,75,0.00,,,0.00,Wunderground v.1.15,2013-07-29 00:18:00,
2013-07-28 20:23:00,63.8,56.4,29.98,WNW,296,0.0,0.0,77,0.00,,,0.00,Wunderground v.1.15,2013-07-29 00:23:00,
2013-07-28 20:28:00,65.0,56.1,29.99,WNW,296,0.0,2.0,73,0.00,,,0.00,Wunderground v.1.15,2013-07-29 00:28:00,
2013-07-28 20:33:00,65.7,56.8,29.98,WNW,296,0.0,2.0,73,0.00,,,0.00,Wunderground v.1.15,2013-07-29 00:33:00,
2013-07-28 20:38:00,65.7,55.2,29.98,WNW,296,0.0,3.0,69,0.00,,,0.00,Wunderground v.1.15,2013-07-29 00:38:00,
2013-07-28 20:43:00,65.4,55.4,29.98,WNW,298,0.0,4.0,70,0.00,,,0.00,Wunderground v.1.15,2013-07-29 00:43:00,
2013-07-28 20:48:00,64.9,55.7,29.99,WNW,298,0.0,4.0,72,0.00,,,0.00,Wunderground v.1.15,2013-07-29 00:48:00,
2013-07-28 20:53:00,64.5,54.5,29.98,WNW,297,2.0,4.0,70,0.00,,,0.00,Wunderground v.1.15,2013-07-29 00:53:00,
2013-07-28 20:58:00,64.1,54.5,29.98,WNW,287,9.0,10.0,71,0.00,,,0.00,Wunderground v.1.15,2013-07-29 00:58:00,
2013-07-28 21:03:00,64.4,54.4,29.98,WNW,282,10.0,12.0,70,0.00,,,0.00,Wunderground v.1.15,2013-07-29 01:03:00,
2013-07-28 21:08:00,64.5,54.5,29.99,WNW,290,11.0,14.0,70,0.00,,,0.00,Wunderground v.1.15,2013-07-29 01:08:00,
2013-07-28 21:13:00,64.4,54.4,29.99,WNW,286,12.0,13.0,70,0.00,,,0.00,Wunderground v.1.15,2013-07-29 01:13:00,
2013-07-28 21:18:00,64.5,54.5,29.99,NW,309,12.0,14.0,70,0.00,,,0.00,Wunderground v.1.15,2013-07-29 01:18:00,
2013-07-28 21:23:00,64.5,54.5,29.99,WNW,290,10.0,14.0,70,0.00,,,0.00,Wunderground v.1.15,2013-07-29 01:23:00,
2013-07-28 21:28:00,64.5,54.1,29.99,WNW,299,12.0,14.0,69,0.00,,,0.00,Wunderground v.1.15,2013-07-29 01:28:00,
2013-07-28 21:33:00,64.6,54.6,29.98,WNW,288,12.0,13.0,70,0.00,,,0.00,Wunderground v.1.15,2013-07-29 01:33:00,
2013-07-28 21:38:00,64.6,55.0,29.98,WNW,286,10.0,13.0,71,0.00,,,0.00,Wunderground v.1.15,2013-07-29 01:38:00,
2013-07-28 21:44:00,64.6,55.0,29.99,West,281,13.0,14.0,71,0.00,,,0.00,Wunderground v.1.15,2013-07-29 01:44:00,
2013-07-28 21:49:00,64.6,55.0,29.99,WNW,294,11.0,14.0,71,0.00,,,0.00,Wunderground v.1.15,2013-07-29 01:49:00,
2013-07-28 21:54:00,64.6,55.0,29.99,WNW,289,14.0,14.0,71,0.00,,,0.00,Wunderground v.1.15,2013-07-29 01:54:00,
2013-07-28 21:59:00,64.7,52.7,29.99,WNW,293,15.0,15.0,65,0.00,,,0.00,Wunderground v.1.15,2013-07-29 01:59:00,
2013-07-28 22:04:00,64.9,52.8,29.99,NW,305,12.0,16.0,65,0.00,,,0.00,Wunderground v.1.15,2013-07-29 02:04:00,
2013-07-28 22:09:00,64.9,54.1,29.99,NW,304,10.0,16.0,68,0.00,,,0.00,Wunderground v.1.15,2013-07-29 02:09:00,
2013-07-28 22:14:00,64.9,55.3,29.99,WNW,292,11.0,15.0,71,0.00,,,0.00,Wunderground v.1.15,2013-07-29 02:14:00,
2013-07-28 22:19:00,64.9,53.3,29.99,WNW,302,14.0,14.0,66,0.00,,,0.00,Wunderground v.1.15,2013-07-29 02:19:00,
2013-07-28 22:24:00,65.0,53.8,29.99,WNW,295,14.0,16.0,67,0.00,,,0.00,Wunderground v.1.15,2013-07-29 02:24:00,
2013-07-28 22:29:00,64.9,54.1,29.99,West,280,16.0,16.0,68,0.00,,,0.00,Wunderground v.1.15,2013-07-29 02:29:00,
2013-07-28 22:34:00,65.0,55.0,29.99,WNW,298,15.0,18.0,70,0.00,,,0.00,Wunderground v.1.15,2013-07-29 02:34:00,
2013-07-28 22:40:00,64.9,54.5,29.99,WNW,287,14.0,18.0,69,0.00,,,0.00,Wunderground v.1.15,2013-07-29 02:40:00,
2013-07-28 22:45:00,65.0,53.4,29.99,WNW,290,14.0,17.0,66,0.00,,,0.00,Wunderground v.1.15,2013-07-29 02:45:00,
2013-07-28 22:50:00,65.0,54.6,29.99,NW,309,11.0,14.0,69,0.00,,,0.00,Wunderground v.1.15,2013-07-29 02:50:00,
2013-07-28 22:55:00,65.0,54.2,29.99,WNW,294,11.0,15.0,68,0.00,,,0.00,Wunderground v.1.15,2013-07-29 02:55:00,
2013-07-28 23:00:00,65.0,53.8,29.99,NW,320,11.0,14.0,67,0.00,,,0.00,Wunderground v.1.15,2013-07-29 03:00:00,
2013-07-28 23:05:00,65.0,54.6,29.99,NW,309,11.0,16.0,69,0.00,,,0.00,Wunderground v.1.15,2013-07-29 03:05:00,
2013-07-28 23:10:00,65.1,54.7,29.99,WNW,296,14.0,17.0,69,0.00,,,0.00,Wunderground v.1.15,2013-07-29 03:10:00,
2013-07-28 23:15:00,65.2,54.4,29.99,WNW,300,14.0,17.0,68,0.00,,,0.00,Wunderground v.1.15,2013-07-29 03:15:00,
2013-07-28 23:20:00,65.2,55.2,29.99,NW,319,11.0,14.0,70,0.00,,,0.00,Wunderground v.1.15,2013-07-29 03:20:00,
2013-07-28 23:25:00,65.2,55.6,29.99,WNW,296,12.0,16.0,71,0.00,,,0.00,Wunderground v.1.15,2013-07-29 03:25:00,
2013-07-28 23:30:00,65.2,55.2,30.00,WNW,303,14.0,14.0,70,0.00,,,0.00,Wunderground v.1.15,2013-07-29 03:30:00,
2013-07-28 23:35:00,65.3,54.5,29.99,NW,311,13.0,15.0,68,0.00,,,0.00,Wunderground v.1.15,2013-07-29 03:35:00,
2013-07-28 23:40:00,65.3,55.7,30.00,NW,313,13.0,14.0,71,0.00,,,0.00,Wunderground v.1.15,2013-07-29 03:40:00,
2013-07-28 23:45:00,65.3,55.3,29.99,WNW,289,16.0,17.0,70,0.00,,,0.00,Wunderground v.1.15,2013-07-29 03:45:00,
2013-07-28 23:50:00,65.5,55.8,29.99,WNW,288,15.0,17.0,71,0.00,,,0.00,Wunderground v.1.15,2013-07-29 03:50:00,
2013-07-28 23:55:00,65.6,55.9,29.99,WNW,290,17.0,17.0,71,0.00,,,0.00,Wunderground v.1.15,2013-07-29 03:55:00,